���t,����,�O�C���x,�����t���O,�O�C���Ύ��x,�����t���O,���ԉ��x,�����t���O,���ԑ��Ύ��x,�����t���O,�g�C������,�����t���O,�L�b�`�����x,�����t���O,��󒲎����x,�����t���O
2004/2/1,0:00,5.1,0,75,0,=,1,=,1,=,1,22.6,0,14.8,0
2004/2/1,0:15,5.2,0,76,0,=,1,=,1,=,1,22,0,14.7,0
2004/2/1,0:30,4.9,0,78,0,=,1,=,1,=,1,21.5,0,14.7,0
2004/2/1,0:45,5,0,78,0,=,1,=,1,=,1,21.1,0,14.7,0
2004/2/1,1:00,4.8,0,79,0,=,1,=,1,=,1,21,0,14.7,0
2004/2/1,1:15,4.7,0,79,0,=,1,=,1,=,1,20.8,0,14.7,0
2004/2/1,1:30,4.3,0,79,0,=,1,=,1,=,1,20.6,0,14.6,0
2004/2/1,1:45,4.3,0,79,0,=,1,=,1,=,1,20.4,0,14.6,0
2004/2/1,2:00,4.1,0,79,0,=,1,=,1,=,1,20.2,0,14.6,0
2004/2/1,2:15,3.9,0,80,0,=,1,=,1,=,1,19.9,0,14.5,0
2004/2/1,2:30,3.6,0,81,0,=,1,=,1,=,1,19.8,0,14.5,0
2004/2/1,2:45,3.8,0,83,0,=,1,=,1,=,1,19.6,0,14.5,0
2004/2/1,3:00,3.9,0,84,0,=,1,=,1,=,1,19.5,0,14.5,0
2004/2/1,3:15,4.1,0,84,0,=,1,=,1,=,1,19.3,0,14.5,0
2004/2/1,3:30,3.9,0,82,0,=,1,=,1,=,1,19.2,0,14.4,0
2004/2/1,3:45,3.7,0,83,0,=,1,=,1,=,1,19,0,14.3,0
2004/2/1,4:00,3.5,0,83,0,=,1,=,1,=,1,18.9,0,14.3,0
2004/2/1,4:15,3.3,0,83,0,=,1,=,1,=,1,18.7,0,14.2,0
2004/2/1,4:30,3.4,0,83,0,=,1,=,1,=,1,18.6,0,14.2,0
2004/2/1,4:45,3.2,0,83,0,=,1,=,1,=,1,18.5,0,14.1,0
2004/2/1,5:00,3.5,0,85,0,=,1,=,1,=,1,18.3,0,14.1,0
2004/2/1,5:15,3.4,0,86,0,=,1,=,1,=,1,18.2,0,14,0
2004/2/1,5:30,3.5,0,87,0,=,1,=,1,=,1,18.1,0,14,0
2004/2/1,5:45,3.4,0,88,0,=,1,=,1,=,1,17.9,0,13.9,0
2004/2/1,6:00,3.4,0,87,0,=,1,=,1,=,1,17.8,0,13.9,0
2004/2/1,6:15,3,0,86,0,=,1,=,1,=,1,17.7,0,13.8,0
2004/2/1,6:30,2.7,0,86,0,=,1,=,1,=,1,17.5,0,13.8,0
2004/2/1,6:45,2.7,0,86,0,=,1,=,1,=,1,17.4,0,13.7,0
2004/2/1,7:00,2.8,0,86,0,=,1,=,1,=,1,17.3,0,13.6,0
2004/2/1,7:15,3.1,0,85,0,=,1,=,1,=,1,19.3,0,13.6,0
2004/2/1,7:30,3.3,0,84,0,=,1,=,1,=,1,20.3,0,13.6,0
2004/2/1,7:45,3.8,0,84,0,=,1,=,1,=,1,21.3,0,13.5,0
2004/2/1,8:00,4.3,0,80,0,=,1,=,1,=,1,22.2,0,13.5,0
2004/2/1,8:15,4.5,0,79,0,=,1,=,1,=,1,22.4,0,13.4,0
2004/2/1,8:30,4.6,0,79,0,=,1,=,1,=,1,22.6,0,13.4,0
2004/2/1,8:45,5.3,0,78,0,=,1,=,1,=,1,22.4,0,13.3,0
2004/2/1,9:00,6.3,0,75,0,=,1,=,1,=,1,21.4,0,13.3,0
2004/2/1,9:15,9.2,0,61,0,=,1,=,1,=,1,20.4,0,13.2,0
2004/2/1,9:30,9.8,0,58,0,=,1,=,1,=,1,19.5,0,13.2,0
2004/2/1,9:45,11.1,0,54,0,=,1,=,1,=,1,19.5,0,13.3,0
2004/2/1,10:00,11.9,0,47,0,=,1,=,1,=,1,19.5,0,13.3,0
2004/2/1,10:15,12,0,48,0,=,1,=,1,=,1,19.4,0,13.3,0
2004/2/1,10:30,13,0,45,0,=,1,=,1,=,1,19.3,0,13.3,0
2004/2/1,10:45,12.3,0,46,0,=,1,=,1,=,1,19.2,0,13.3,0
2004/2/1,11:00,14,0,43,0,=,1,=,1,=,1,19.1,0,13.3,0
2004/2/1,11:15,14.5,0,42,0,=,1,=,1,=,1,19.1,0,13.3,0
2004/2/1,11:30,14,0,44,0,=,1,=,1,=,1,19,0,13.3,0
2004/2/1,11:45,13.9,0,45,0,=,1,=,1,=,1,18.9,0,13.3,0
2004/2/1,12:00,16.3,0,39,0,=,1,=,1,=,1,18.9,0,13.3,0
2004/2/1,12:15,17.1,0,35,0,=,1,=,1,=,1,18.8,0,13.3,0
2004/2/1,12:30,16.2,0,42,0,=,1,=,1,=,1,18.8,0,13.3,0
2004/2/1,12:45,18.2,0,38,0,=,1,=,1,=,1,18.9,0,13.3,0
2004/2/1,13:00,16.2,0,41,0,=,1,=,1,=,1,18.8,0,13.4,0
2004/2/1,13:15,15.3,0,43,0,=,1,=,1,=,1,18.8,0,13.4,0
2004/2/1,13:30,15.2,0,43,0,=,1,=,1,=,1,18.8,0,13.4,0
2004/2/1,13:45,14.8,0,43,0,=,1,=,1,=,1,18.7,0,13.5,0
2004/2/1,14:00,14.6,0,42,0,=,1,=,1,=,1,18.7,0,13.5,0
2004/2/1,14:15,14.9,0,42,0,=,1,=,1,=,1,18.7,0,13.5,0
2004/2/1,14:30,15,0,42,0,=,1,=,1,=,1,18.7,0,13.6,0
2004/2/1,14:45,15.4,0,41,0,=,1,=,1,=,1,18.6,0,13.6,0
2004/2/1,15:00,15,0,43,0,=,1,=,1,=,1,18.6,0,13.7,0
2004/2/1,15:15,14.5,0,46,0,=,1,=,1,=,1,18.6,0,13.7,0
2004/2/1,15:30,14.4,0,46,0,=,1,=,1,=,1,18.7,0,13.8,0
2004/2/1,15:45,14.2,0,47,0,=,1,=,1,=,1,18.7,0,13.8,0
2004/2/1,16:00,13.9,0,51,0,=,1,=,1,=,1,18.6,0,13.8,0
2004/2/1,16:15,13.6,0,54,0,=,1,=,1,=,1,18.6,0,13.9,0
2004/2/1,16:30,13.5,0,56,0,=,1,=,1,=,1,18.5,0,13.9,0
2004/2/1,16:45,13.4,0,57,0,=,1,=,1,=,1,18.4,0,14,0
2004/2/1,17:00,13.2,0,58,0,=,1,=,1,=,1,18.3,0,14,0
2004/2/1,17:15,12.9,0,57,0,=,1,=,1,=,1,18.2,0,14.1,0
2004/2/1,17:30,12.9,0,57,0,=,1,=,1,=,1,18.1,0,14.1,0
2004/2/1,17:45,12.7,0,58,0,=,1,=,1,=,1,18.4,0,14.1,0
2004/2/1,18:00,12.6,0,60,0,=,1,=,1,=,1,20.2,0,14.2,0
2004/2/1,18:15,12.7,0,64,0,=,1,=,1,=,1,20.9,0,14.3,0
2004/2/1,18:30,12.2,0,70,0,=,1,=,1,=,1,21.7,0,14.4,0
2004/2/1,18:45,11.7,0,74,0,=,1,=,1,=,1,22.1,0,14.4,0
2004/2/1,19:00,11.6,0,77,0,=,1,=,1,=,1,21.4,0,14.4,0
2004/2/1,19:15,11.2,0,79,0,=,1,=,1,=,1,20.8,0,14.4,0
2004/2/1,19:30,11.2,0,80,0,=,1,=,1,=,1,20.7,0,14.4,0
2004/2/1,19:45,10.9,0,83,0,=,1,=,1,=,1,20.9,0,14.5,0
2004/2/1,20:00,10.9,0,84,0,=,1,=,1,=,1,20.1,0,14.5,0
2004/2/1,20:15,10.9,0,85,0,=,1,=,1,=,1,19.9,0,14.6,0
2004/2/1,20:30,10.8,0,84,0,=,1,=,1,=,1,19.8,0,14.6,0
2004/2/1,20:45,10.6,0,86,0,=,1,=,1,=,1,19.6,0,14.7,0
2004/2/1,21:00,10.8,0,86,0,=,1,=,1,=,1,19.8,0,14.7,0
2004/2/1,21:15,10.5,0,87,0,=,1,=,1,=,1,21.1,0,14.8,0
2004/2/1,21:30,10.6,0,87,0,=,1,=,1,=,1,22,0,14.9,0
2004/2/1,21:45,10.6,0,87,0,=,1,=,1,=,1,22.5,0,15,0
2004/2/1,22:00,10.4,0,86,0,=,1,=,1,=,1,23,0,15,0
2004/2/1,22:15,10.5,0,86,0,=,1,=,1,=,1,23.2,0,15.1,0
2004/2/1,22:30,10.4,0,86,0,=,1,=,1,=,1,23.5,0,15.1,0
2004/2/1,22:45,10.4,0,87,0,=,1,=,1,=,1,23.8,0,15.1,0
2004/2/1,23:00,10.4,0,88,0,=,1,=,1,=,1,23.7,0,15.1,0
2004/2/1,23:15,10.2,0,89,0,=,1,=,1,=,1,23.6,0,15.1,0
2004/2/1,23:30,10.3,0,89,0,=,1,=,1,=,1,22.9,0,15.1,0
2004/2/1,23:45,10.3,0,89,0,=,1,=,1,=,1,22.4,0,15.1,0
2004/2/2,0:00,10.4,0,89,0,=,1,=,1,=,1,21.9,0,15.1,0
2004/2/2,0:15,10.3,0,89,0,=,1,=,1,=,1,21.6,0,15,0
2004/2/2,0:30,10.3,0,90,0,=,1,=,1,=,1,21.3,0,15,0
2004/2/2,0:45,10.4,0,90,0,=,1,=,1,=,1,21,0,15,0
2004/2/2,1:00,10.3,0,91,0,=,1,=,1,=,1,20.9,0,15,0
2004/2/2,1:15,10.5,0,92,0,=,1,=,1,=,1,20.8,0,15,0
2004/2/2,1:30,10.3,0,92,0,=,1,=,1,=,1,20.7,0,15,0
2004/2/2,1:45,10.3,0,93,0,=,1,=,1,=,1,20.6,0,15,0
2004/2/2,2:00,10.1,0,93,0,=,1,=,1,=,1,20.5,0,15,0
2004/2/2,2:15,10.4,0,93,0,=,1,=,1,=,1,20.4,0,15,0
2004/2/2,2:30,10.3,0,93,0,=,1,=,1,=,1,20.2,0,15,0
2004/2/2,2:45,10.3,0,93,0,=,1,=,1,=,1,20.1,0,15,0
2004/2/2,3:00,10.4,0,93,0,=,1,=,1,=,1,20,0,15.1,0
2004/2/2,3:15,10.3,0,93,0,=,1,=,1,=,1,19.9,0,15.1,0
2004/2/2,3:30,10.2,0,93,0,=,1,=,1,=,1,19.8,0,15.1,0
2004/2/2,3:45,10.1,0,94,0,=,1,=,1,=,1,19.7,0,15,0
2004/2/2,4:00,10.3,0,93,0,=,1,=,1,=,1,19.6,0,15.1,0
2004/2/2,4:15,10.4,0,93,0,=,1,=,1,=,1,19.6,0,15,0
2004/2/2,4:30,10.4,0,93,0,=,1,=,1,=,1,19.5,0,15,0
2004/2/2,4:45,10.2,0,93,0,=,1,=,1,=,1,19.4,0,15,0
2004/2/2,5:00,10.1,0,93,0,=,1,=,1,=,1,19.3,0,15,0
2004/2/2,5:15,10.1,0,94,0,=,1,=,1,=,1,19.2,0,15,0
2004/2/2,5:30,10.2,0,94,0,=,1,=,1,=,1,19.2,0,15,0
2004/2/2,5:45,10.2,0,95,0,=,1,=,1,=,1,19.1,0,14.9,0
2004/2/2,6:00,10.4,0,96,0,=,1,=,1,=,1,19,0,14.9,0
2004/2/2,6:15,10.4,0,96,0,=,1,=,1,=,1,18.9,0,14.9,0
2004/2/2,6:30,10.5,0,97,0,=,1,=,1,=,1,18.9,0,14.9,0
2004/2/2,6:45,10.5,0,97,0,=,1,=,1,=,1,18.8,0,14.9,0
2004/2/2,7:00,10.8,0,98,0,=,1,=,1,=,1,20.2,0,14.9,0
2004/2/2,7:15,11,0,94,0,=,1,=,1,=,1,21.1,0,14.9,0
2004/2/2,7:30,11.2,0,86,0,=,1,=,1,=,1,22.1,0,14.9,0
2004/2/2,7:45,11.2,0,83,0,=,1,=,1,=,1,22.7,0,14.9,0
2004/2/2,8:00,11,0,85,0,=,1,=,1,=,1,22.3,0,14.9,0
2004/2/2,8:15,11,0,85,0,=,1,=,1,=,1,23,0,14.9,0
2004/2/2,8:30,10.9,0,82,0,=,1,=,1,=,1,23.4,0,15,0
2004/2/2,8:45,11,0,75,0,=,1,=,1,=,1,23.6,0,15,0
2004/2/2,9:00,11,0,75,0,=,1,=,1,=,1,22.5,0,15,0
2004/2/2,9:15,10.9,0,78,0,=,1,=,1,=,1,21.9,0,15,0
2004/2/2,9:30,10.9,0,75,0,=,1,=,1,=,1,21.4,0,15,0
2004/2/2,9:45,11.2,0,69,0,=,1,=,1,=,1,22.3,0,15,0
2004/2/2,10:00,11.3,0,68,0,=,1,=,1,=,1,22.7,0,15,0
2004/2/2,10:15,11.3,0,65,0,=,1,=,1,=,1,23,0,15,0
2004/2/2,10:30,11.2,0,65,0,=,1,=,1,=,1,23.5,0,15,0
2004/2/2,10:45,11.1,0,63,0,=,1,=,1,=,1,23.1,0,15,0
2004/2/2,11:00,11.3,0,61,0,=,1,=,1,=,1,22.5,0,15,0
2004/2/2,11:15,11.6,0,55,0,=,1,=,1,=,1,22,0,14.9,0
2004/2/2,11:30,12,0,53,0,=,1,=,1,=,1,21.6,0,14.9,0
2004/2/2,11:45,12.1,0,55,0,=,1,=,1,=,1,21.2,0,14.9,0
2004/2/2,12:00,11.5,0,57,0,=,1,=,1,=,1,21,0,14.9,0
2004/2/2,12:15,12.1,0,56,0,=,1,=,1,=,1,20.7,0,14.9,0
2004/2/2,12:30,13.2,0,52,0,=,1,=,1,=,1,20.5,0,14.9,0
2004/2/2,12:45,14.4,0,46,0,=,1,=,1,=,1,20.2,0,14.8,0
2004/2/2,13:00,15.4,0,41,0,=,1,=,1,=,1,20.1,0,14.8,0
2004/2/2,13:15,14.5,0,45,0,=,1,=,1,=,1,19.9,0,14.8,0
2004/2/2,13:30,14.3,0,49,0,=,1,=,1,=,1,19.8,0,14.8,0
2004/2/2,13:45,13.3,0,53,0,=,1,=,1,=,1,19.6,0,14.8,0
2004/2/2,14:00,13,0,52,0,=,1,=,1,=,1,19.5,0,14.8,0
2004/2/2,14:15,12.9,0,52,0,=,1,=,1,=,1,19.4,0,14.8,0
2004/2/2,14:30,12.9,0,51,0,=,1,=,1,=,1,19.3,0,14.8,0
2004/2/2,14:45,13,0,52,0,=,1,=,1,=,1,19.2,0,14.8,0
2004/2/2,15:00,13.5,0,48,0,=,1,=,1,=,1,19.2,0,14.8,0
2004/2/2,15:15,13.2,0,46,0,=,1,=,1,=,1,19.2,0,14.8,0
2004/2/2,15:30,12.9,0,49,0,=,1,=,1,=,1,20.3,0,14.8,0
2004/2/2,15:45,12.5,0,49,0,=,1,=,1,=,1,21,0,14.8,0
2004/2/2,16:00,12.2,0,51,0,=,1,=,1,=,1,21.6,0,14.8,0
2004/2/2,16:15,11.9,0,50,0,=,1,=,1,=,1,22.1,0,14.8,0
2004/2/2,16:30,11.7,0,47,0,=,1,=,1,=,1,22.4,0,14.8,0
2004/2/2,16:45,11.2,0,50,0,=,1,=,1,=,1,22.7,0,14.8,0
2004/2/2,17:00,10.9,0,50,0,=,1,=,1,=,1,23,0,14.8,0
2004/2/2,17:15,10.5,0,48,0,=,1,=,1,=,1,23.3,0,14.8,0
2004/2/2,17:30,10.4,0,51,0,=,1,=,1,=,1,23.4,0,14.8,0
2004/2/2,17:45,10.2,0,49,0,=,1,=,1,=,1,23.4,0,14.7,0
2004/2/2,18:00,9.8,0,50,0,=,1,=,1,=,1,23.4,0,14.7,0
2004/2/2,18:15,9.7,0,51,0,=,1,=,1,=,1,23.2,0,14.7,0
2004/2/2,18:30,9.5,0,52,0,=,1,=,1,=,1,23.3,0,14.7,0
2004/2/2,18:45,9.6,0,50,0,=,1,=,1,=,1,23.4,0,14.7,0
2004/2/2,19:00,9.5,0,49,0,=,1,=,1,=,1,23.5,0,14.7,0
2004/2/2,19:15,9.3,0,50,0,=,1,=,1,=,1,23.5,0,14.7,0
2004/2/2,19:30,9.2,0,51,0,=,1,=,1,=,1,23.5,0,14.7,0
2004/2/2,19:45,9.2,0,50,0,=,1,=,1,=,1,23.8,0,14.6,0
2004/2/2,20:00,9.3,0,51,0,=,1,=,1,=,1,24,0,14.6,0
2004/2/2,20:15,9.1,0,50,0,=,1,=,1,=,1,24,0,14.6,0
2004/2/2,20:30,9.2,0,51,0,=,1,=,1,=,1,23.7,0,14.5,0
2004/2/2,20:45,9.1,0,49,0,=,1,=,1,=,1,23.5,0,14.5,0
2004/2/2,21:00,9,0,49,0,=,1,=,1,=,1,23,0,14.5,0
2004/2/2,21:15,8.9,0,48,0,=,1,=,1,=,1,22.8,0,14.4,0
2004/2/2,21:30,8.7,0,47,0,=,1,=,1,=,1,22.8,0,14.4,0
2004/2/2,21:45,8.6,0,47,0,=,1,=,1,=,1,22.8,0,14.4,0
2004/2/2,22:00,8.3,0,49,0,=,1,=,1,=,1,22.7,0,14.4,0
2004/2/2,22:15,8.3,0,51,0,=,1,=,1,=,1,22.7,0,14.4,0
2004/2/2,22:30,8.2,0,52,0,=,1,=,1,=,1,22.6,0,14.4,0
2004/2/2,22:45,8,0,50,0,=,1,=,1,=,1,22.9,0,14.4,0
2004/2/2,23:00,8,0,50,0,=,1,=,1,=,1,23.4,0,14.3,0
2004/2/2,23:15,7.9,0,51,0,=,1,=,1,=,1,23.7,0,14.3,0
2004/2/2,23:30,8,0,55,0,=,1,=,1,=,1,23.3,0,14.3,0
2004/2/2,23:45,7.9,0,56,0,=,1,=,1,=,1,22.9,0,14.3,0
2004/2/3,0:00,7.9,0,58,0,=,1,=,1,=,1,22.6,0,14.3,0
2004/2/3,0:15,7.9,0,58,0,=,1,=,1,=,1,22.3,0,14.2,0
2004/2/3,0:30,7.9,0,56,0,=,1,=,1,=,1,22,0,14.2,0
2004/2/3,0:45,7.9,0,55,0,=,1,=,1,=,1,21.7,0,14.2,0
2004/2/3,1:00,7.8,0,53,0,=,1,=,1,=,1,21.5,0,14.2,0
2004/2/3,1:15,7.6,0,52,0,=,1,=,1,=,1,21.2,0,14.2,0
2004/2/3,1:30,7.6,0,51,0,=,1,=,1,=,1,21,0,14.2,0
2004/2/3,1:45,7.6,0,51,0,=,1,=,1,=,1,20.7,0,14.2,0
2004/2/3,2:00,7.7,0,50,0,=,1,=,1,=,1,20.5,0,14.2,0
2004/2/3,2:15,7.5,0,50,0,=,1,=,1,=,1,20.3,0,14.2,0
2004/2/3,2:30,7.3,0,49,0,=,1,=,1,=,1,20.1,0,14.2,0
2004/2/3,2:45,7.3,0,49,0,=,1,=,1,=,1,19.9,0,14.2,0
2004/2/3,3:00,7,0,50,0,=,1,=,1,=,1,19.7,0,14.2,0
2004/2/3,3:15,7.1,0,49,0,=,1,=,1,=,1,19.5,0,14.2,0
2004/2/3,3:30,7,0,49,0,=,1,=,1,=,1,19.3,0,14.1,0
2004/2/3,3:45,6.8,0,49,0,=,1,=,1,=,1,19.2,0,14.1,0
2004/2/3,4:00,6.7,0,48,0,=,1,=,1,=,1,19,0,14.1,0
2004/2/3,4:15,6.5,0,48,0,=,1,=,1,=,1,18.9,0,14.1,0
2004/2/3,4:30,6.5,0,47,0,=,1,=,1,=,1,18.7,0,14.1,0
2004/2/3,4:45,6.3,0,45,0,=,1,=,1,=,1,18.6,0,14,0
2004/2/3,5:00,6.1,0,47,0,=,1,=,1,=,1,18.4,0,14,0
2004/2/3,5:15,6,0,48,0,=,1,=,1,=,1,18.3,0,14,0
2004/2/3,5:30,5.9,0,50,0,=,1,=,1,=,1,18.1,0,13.9,0
2004/2/3,5:45,5.9,0,50,0,=,1,=,1,=,1,18,0,13.9,0
2004/2/3,6:00,5.6,0,49,0,=,1,=,1,=,1,17.9,0,13.9,0
2004/2/3,6:15,5.8,0,49,0,=,1,=,1,=,1,17.7,0,13.9,0
2004/2/3,6:30,5.6,0,50,0,=,1,=,1,=,1,17.6,0,13.9,0
2004/2/3,6:45,5.6,0,50,0,=,1,=,1,=,1,17.5,0,13.8,0
2004/2/3,7:00,5.5,0,48,0,=,1,=,1,=,1,19.6,0,13.8,0
2004/2/3,7:15,5.4,0,48,0,=,1,=,1,=,1,20.8,0,13.8,0
2004/2/3,7:30,5.4,0,47,0,=,1,=,1,=,1,21.5,0,13.7,0
2004/2/3,7:45,5.3,0,48,0,=,1,=,1,=,1,22,0,13.7,0
2004/2/3,8:00,5.4,0,48,0,=,1,=,1,=,1,21.9,0,13.6,0
2004/2/3,8:15,7.2,0,42,0,=,1,=,1,=,1,22.1,0,13.5,0
2004/2/3,8:30,6.8,0,42,0,=,1,=,1,=,1,22.5,0,13.4,0
2004/2/3,8:45,6,0,45,0,=,1,=,1,=,1,22.2,0,13.3,0
2004/2/3,9:00,6.4,0,45,0,=,1,=,1,=,1,21,0,13.3,0
2004/2/3,9:15,6.3,0,47,0,=,1,=,1,=,1,20.2,0,13.3,0
2004/2/3,9:30,6.4,0,48,0,=,1,=,1,=,1,20.2,0,13.3,0
2004/2/3,9:45,8.7,0,42,0,=,1,=,1,=,1,20,0,13.3,0
2004/2/3,10:00,9.1,0,40,0,=,1,=,1,=,1,19.9,0,13.2,0
2004/2/3,10:15,8.3,0,41,0,=,1,=,1,=,1,19.9,0,13.2,0
2004/2/3,10:30,7.4,0,46,0,=,1,=,1,=,1,19.8,0,13.1,0
2004/2/3,10:45,8.9,0,39,0,=,1,=,1,=,1,19.8,0,13.1,0
2004/2/3,11:00,9,0,37,0,=,1,=,1,=,1,19.7,0,13,0
2004/2/3,11:15,8.3,0,40,0,=,1,=,1,=,1,19.7,0,12.9,0
2004/2/3,11:30,10.6,0,35,0,=,1,=,1,=,1,19.6,0,12.8,0
2004/2/3,11:45,9.1,0,38,0,=,1,=,1,=,1,19.4,0,12.8,0
2004/2/3,12:00,8.9,0,35,0,=,1,=,1,=,1,20.9,0,12.7,0
2004/2/3,12:15,9,0,37,0,=,1,=,1,=,1,21.5,0,12.6,0
2004/2/3,12:30,9,0,38,0,=,1,=,1,=,1,21.4,0,12.5,0
2004/2/3,12:45,8.9,0,38,0,=,1,=,1,=,1,20.9,0,12.4,0
2004/2/3,13:00,9.1,0,39,0,=,1,=,1,=,1,20.6,0,12.3,0
2004/2/3,13:15,8.8,0,38,0,=,1,=,1,=,1,20.3,0,12.2,0
2004/2/3,13:30,9.8,0,36,0,=,1,=,1,=,1,20,0,12.2,0
2004/2/3,13:45,10.3,0,34,0,=,1,=,1,=,1,19.8,0,12.1,0
2004/2/3,14:00,9.5,0,37,0,=,1,=,1,=,1,19.6,0,12,0
2004/2/3,14:15,9.7,0,37,0,=,1,=,1,=,1,21,0,11.9,0
2004/2/3,14:30,10.5,0,34,0,=,1,=,1,=,1,20.6,0,11.8,0
2004/2/3,14:45,9.6,0,35,0,=,1,=,1,=,1,20.2,0,11.8,0
2004/2/3,15:00,9.9,0,35,0,=,1,=,1,=,1,19.8,0,11.7,0
2004/2/3,15:15,9.3,0,34,0,=,1,=,1,=,1,19.6,0,11.7,0
2004/2/3,15:30,9,0,40,0,=,1,=,1,=,1,19.5,0,11.7,0
2004/2/3,15:45,8.2,0,40,0,=,1,=,1,=,1,19.2,0,11.6,0
2004/2/3,16:00,7.9,0,46,0,=,1,=,1,=,1,19.2,0,11.6,0
2004/2/3,16:15,7.4,0,49,0,=,1,=,1,=,1,19.3,0,11.6,0
2004/2/3,16:30,7.1,0,51,0,=,1,=,1,=,1,20.5,0,11.6,0
2004/2/3,16:45,7,0,51,0,=,1,=,1,=,1,21,0,11.6,0
2004/2/3,17:00,7.2,0,46,0,=,1,=,1,=,1,22,0,11.5,0
2004/2/3,17:15,6.9,0,43,0,=,1,=,1,=,1,22.4,0,11.5,0
2004/2/3,17:30,6.6,0,45,0,=,1,=,1,=,1,22.6,0,11.5,0
2004/2/3,17:45,6.5,0,44,0,=,1,=,1,=,1,22.8,0,11.4,0
2004/2/3,18:00,6.1,0,43,0,=,1,=,1,=,1,23.2,0,11.4,0
2004/2/3,18:15,5.9,0,43,0,=,1,=,1,=,1,23.4,0,11.4,0
2004/2/3,18:30,5.8,0,47,0,=,1,=,1,=,1,23.8,0,11.4,0
2004/2/3,18:45,5.6,0,46,0,=,1,=,1,=,1,24.2,0,11.4,0
2004/2/3,19:00,5.3,0,46,0,=,1,=,1,=,1,24.4,0,11.4,0
2004/2/3,19:15,5.1,0,45,0,=,1,=,1,=,1,24.4,0,11.4,0
2004/2/3,19:30,4.9,0,43,0,=,1,=,1,=,1,24.7,0,11.4,0
2004/2/3,19:45,5.1,0,44,0,=,1,=,1,=,1,24.9,0,11.4,0
2004/2/3,20:00,5.2,0,41,0,=,1,=,1,=,1,24.8,0,11.4,0
2004/2/3,20:15,5.1,0,40,0,=,1,=,1,=,1,24.8,0,11.4,0
2004/2/3,20:30,4.9,0,41,0,=,1,=,1,=,1,24.7,0,11.3,0
2004/2/3,20:45,4.9,0,40,0,=,1,=,1,=,1,24.6,0,11.3,0
2004/2/3,21:00,5,0,42,0,=,1,=,1,=,1,24.6,0,11.3,0
2004/2/3,21:15,4.9,0,41,0,=,1,=,1,=,1,24.1,0,11.3,0
2004/2/3,21:30,4.8,0,41,0,=,1,=,1,=,1,24.3,0,11.3,0
2004/2/3,21:45,4.9,0,43,0,=,1,=,1,=,1,24.6,0,11.3,0
2004/2/3,22:00,4.9,0,41,0,=,1,=,1,=,1,24.6,0,11.2,0
2004/2/3,22:15,4.8,0,40,0,=,1,=,1,=,1,24.7,0,11.2,0
2004/2/3,22:30,4.8,0,42,0,=,1,=,1,=,1,24.9,0,11.1,0
2004/2/3,22:45,4.8,0,42,0,=,1,=,1,=,1,24.1,0,11.1,0
2004/2/3,23:00,4.8,0,42,0,=,1,=,1,=,1,23.3,0,11.2,0
2004/2/3,23:15,4.9,0,41,0,=,1,=,1,=,1,22.9,0,11.2,0
2004/2/3,23:30,4.8,0,44,0,=,1,=,1,=,1,22.7,0,11.5,0
2004/2/3,23:45,4.8,0,45,0,=,1,=,1,=,1,22.3,0,11.7,0
2004/2/4,0:00,4.8,0,44,0,=,1,=,1,=,1,22.1,0,11.8,0
2004/2/4,0:15,4.6,0,45,0,=,1,=,1,=,1,21.8,0,11.7,0
2004/2/4,0:30,4.5,0,42,0,=,1,=,1,=,1,21.5,0,11.7,0
2004/2/4,0:45,4.4,0,42,0,=,1,=,1,=,1,21.2,0,11.6,0
2004/2/4,1:00,4.3,0,42,0,=,1,=,1,=,1,20.9,0,11.6,0
2004/2/4,1:15,4.2,0,42,0,=,1,=,1,=,1,20.6,0,11.5,0
2004/2/4,1:30,4.1,0,46,0,=,1,=,1,=,1,20.3,0,11.5,0
2004/2/4,1:45,4,0,50,0,=,1,=,1,=,1,20.1,0,11.5,0
2004/2/4,2:00,3.9,0,49,0,=,1,=,1,=,1,19.8,0,11.5,0
2004/2/4,2:15,3.9,0,51,0,=,1,=,1,=,1,19.6,0,11.5,0
2004/2/4,2:30,4,0,51,0,=,1,=,1,=,1,19.4,0,11.5,0
2004/2/4,2:45,4.2,0,49,0,=,1,=,1,=,1,19.2,0,11.5,0
2004/2/4,3:00,4.3,0,49,0,=,1,=,1,=,1,19,0,11.5,0
2004/2/4,3:15,4.2,0,50,0,=,1,=,1,=,1,18.8,0,11.5,0
2004/2/4,3:30,4.3,0,49,0,=,1,=,1,=,1,18.7,0,11.5,0
2004/2/4,3:45,4.2,0,53,0,=,1,=,1,=,1,18.5,0,11.5,0
2004/2/4,4:00,4.1,0,54,0,=,1,=,1,=,1,18.3,0,11.5,0
2004/2/4,4:15,4.1,0,54,0,=,1,=,1,=,1,18.1,0,11.5,0
2004/2/4,4:30,4,0,59,0,=,1,=,1,=,1,18,0,11.5,0
2004/2/4,4:45,4,0,55,0,=,1,=,1,=,1,17.8,0,11.5,0
2004/2/4,5:00,4.3,0,49,0,=,1,=,1,=,1,17.6,0,11.5,0
2004/2/4,5:15,4.1,0,56,0,=,1,=,1,=,1,17.5,0,11.5,0
2004/2/4,5:30,4,0,57,0,=,1,=,1,=,1,17.3,0,11.5,0
2004/2/4,5:45,4.1,0,53,0,=,1,=,1,=,1,17.2,0,11.4,0
2004/2/4,6:00,4.3,0,54,0,=,1,=,1,=,1,17,0,11.4,0
2004/2/4,6:15,4.3,0,58,0,=,1,=,1,=,1,16.9,0,11.4,0
2004/2/4,6:30,4.1,0,59,0,=,1,=,1,=,1,16.7,0,11.3,0
2004/2/4,6:45,4.2,0,58,0,=,1,=,1,=,1,16.6,0,11.3,0
2004/2/4,7:00,4.3,0,51,0,=,1,=,1,=,1,19,0,11.3,0
2004/2/4,7:15,4.4,0,46,0,=,1,=,1,=,1,20.9,0,11.3,0
2004/2/4,7:30,4.3,0,55,0,=,1,=,1,=,1,21.8,0,11.3,0
2004/2/4,7:45,4.3,0,57,0,=,1,=,1,=,1,22.5,0,11.2,0
2004/2/4,8:00,4.3,0,61,0,=,1,=,1,=,1,21.7,0,11.2,0
2004/2/4,8:15,4.1,0,62,0,=,1,=,1,=,1,19.9,0,11.2,0
2004/2/4,8:30,4.2,0,60,0,=,1,=,1,=,1,19.2,0,11.1,0
2004/2/4,8:45,4.6,0,57,0,=,1,=,1,=,1,18.3,0,11.1,0
2004/2/4,9:00,5,0,53,0,=,1,=,1,=,1,17.7,0,11.1,0
2004/2/4,9:15,4.8,0,51,0,=,1,=,1,=,1,18,0,11.2,0
2004/2/4,9:30,5.8,0,52,0,=,1,=,1,=,1,18.9,0,11.2,0
2004/2/4,9:45,5.9,0,56,0,=,1,=,1,=,1,20.2,0,11.1,0
2004/2/4,10:00,5.4,0,63,0,=,1,=,1,=,1,20.9,0,11.1,0
2004/2/4,10:15,6.7,0,52,0,=,1,=,1,=,1,21.3,0,11.1,0
2004/2/4,10:30,6.6,0,49,0,=,1,=,1,=,1,22.4,0,11.1,0
2004/2/4,10:45,6.3,0,50,0,=,1,=,1,=,1,22.8,0,11.1,0
2004/2/4,11:00,5.9,0,54,0,=,1,=,1,=,1,23.3,0,11.1,0
2004/2/4,11:15,6.1,0,54,0,=,1,=,1,=,1,23.4,0,11.1,0
2004/2/4,11:30,6,0,53,0,=,1,=,1,=,1,23.3,0,11.1,0
2004/2/4,11:45,8,0,47,0,=,1,=,1,=,1,23.3,0,11.1,0
2004/2/4,12:00,8.8,0,42,0,=,1,=,1,=,1,23.6,0,11.1,0
2004/2/4,12:15,9.7,0,37,0,=,1,=,1,=,1,22.7,0,11.1,0
2004/2/4,12:30,8.7,0,41,0,=,1,=,1,=,1,22.1,0,11.1,0
2004/2/4,12:45,7.1,0,52,0,=,1,=,1,=,1,21.6,0,11.1,0
2004/2/4,13:00,6.8,0,51,0,=,1,=,1,=,1,22.8,0,11.1,0
2004/2/4,13:15,7.3,0,50,0,=,1,=,1,=,1,23,0,11,0
2004/2/4,13:30,7.2,0,48,0,=,1,=,1,=,1,22.9,0,11,0
2004/2/4,13:45,8.3,0,54,0,=,1,=,1,=,1,22.5,0,11,0
2004/2/4,14:00,8.3,0,46,0,=,1,=,1,=,1,22.5,0,11,0
2004/2/4,14:15,9.6,0,39,0,=,1,=,1,=,1,22.4,0,11,0
2004/2/4,14:30,8.8,0,45,0,=,1,=,1,=,1,22.3,0,10.9,0
2004/2/4,14:45,9.2,0,41,0,=,1,=,1,=,1,22.3,0,10.9,0
2004/2/4,15:00,8.5,0,42,0,=,1,=,1,=,1,22.3,0,10.9,0
2004/2/4,15:15,8.1,0,40,0,=,1,=,1,=,1,22.3,0,10.9,0
2004/2/4,15:30,7.8,0,44,0,=,1,=,1,=,1,22.3,0,10.9,0
2004/2/4,15:45,7.5,0,46,0,=,1,=,1,=,1,22.2,0,10.9,0
2004/2/4,16:00,7.2,0,52,0,=,1,=,1,=,1,22.2,0,10.9,0
2004/2/4,16:15,7,0,51,0,=,1,=,1,=,1,22.1,0,10.9,0
2004/2/4,16:30,6.4,0,51,0,=,1,=,1,=,1,22.1,0,10.9,0
2004/2/4,16:45,6.3,0,51,0,=,1,=,1,=,1,22,0,10.9,0
2004/2/4,17:00,6,0,52,0,=,1,=,1,=,1,21.8,0,10.9,0
2004/2/4,17:15,5.7,0,58,0,=,1,=,1,=,1,21.7,0,10.9,0
2004/2/4,17:30,5.8,0,54,0,=,1,=,1,=,1,21.6,0,10.9,0
2004/2/4,17:45,5.6,0,55,0,=,1,=,1,=,1,21.4,0,10.9,0
2004/2/4,18:00,5.6,0,53,0,=,1,=,1,=,1,22.4,0,10.8,0
2004/2/4,18:15,5.5,0,55,0,=,1,=,1,=,1,22.7,0,10.8,0
2004/2/4,18:30,5.3,0,55,0,=,1,=,1,=,1,23.4,0,10.8,0
2004/2/4,18:45,5.4,0,53,0,=,1,=,1,=,1,23.5,0,10.8,0
2004/2/4,19:00,5.7,0,49,0,=,1,=,1,=,1,23.7,0,10.7,0
2004/2/4,19:15,5.8,0,49,0,=,1,=,1,=,1,24.1,0,10.7,0
2004/2/4,19:30,5.8,0,48,0,=,1,=,1,=,1,24.1,0,10.7,0
2004/2/4,19:45,5.9,0,48,0,=,1,=,1,=,1,24.4,0,10.7,0
2004/2/4,20:00,5.8,0,46,0,=,1,=,1,=,1,24.5,0,10.7,0
2004/2/4,20:15,5.6,0,49,0,=,1,=,1,=,1,24.4,0,10.7,0
2004/2/4,20:30,5.4,0,48,0,=,1,=,1,=,1,24.7,0,10.7,0
2004/2/4,20:45,5.4,0,48,0,=,1,=,1,=,1,24.5,0,10.7,0
2004/2/4,21:00,5.4,0,48,0,=,1,=,1,=,1,24.7,0,10.7,0
2004/2/4,21:15,5.4,0,49,0,=,1,=,1,=,1,24.7,0,10.8,0
2004/2/4,21:30,5.4,0,48,0,=,1,=,1,=,1,24.4,0,10.9,0
2004/2/4,21:45,5.4,0,48,0,=,1,=,1,=,1,24,0,11,0
2004/2/4,22:00,5.4,0,42,0,=,1,=,1,=,1,23.7,0,11,0
2004/2/4,22:15,5.5,0,38,0,=,1,=,1,=,1,23.4,0,11,0
2004/2/4,22:30,5.7,0,42,0,=,1,=,1,=,1,23.3,0,11,0
2004/2/4,22:45,5.7,0,40,0,=,1,=,1,=,1,23.5,0,11,0
2004/2/4,23:00,5.6,0,40,0,=,1,=,1,=,1,23.3,0,11,0
2004/2/4,23:15,5.6,0,43,0,=,1,=,1,=,1,23.1,0,11.1,0
2004/2/4,23:30,5.5,0,46,0,=,1,=,1,=,1,22.8,0,11.1,0
2004/2/4,23:45,6,0,37,0,=,1,=,1,=,1,22.5,0,11.1,0
2004/2/5,0:00,5.9,0,43,0,=,1,=,1,=,1,22.2,0,11.1,0
2004/2/5,0:15,5.8,0,44,0,=,1,=,1,=,1,22,0,11.1,0
2004/2/5,0:30,6,0,43,0,=,1,=,1,=,1,21.7,0,11.1,0
2004/2/5,0:45,6.2,0,42,0,=,1,=,1,=,1,21.4,0,11,0
2004/2/5,1:00,5.9,0,52,0,=,1,=,1,=,1,21.2,0,11,0
2004/2/5,1:15,5.5,0,61,0,=,1,=,1,=,1,20.9,0,11,0
2004/2/5,1:30,5.5,0,59,0,=,1,=,1,=,1,20.7,0,11,0
2004/2/5,1:45,5.4,0,67,0,=,1,=,1,=,1,20.4,0,11.1,0
2004/2/5,2:00,4.8,0,69,0,=,1,=,1,=,1,20.2,0,11.1,0
2004/2/5,2:15,4.3,0,73,0,=,1,=,1,=,1,20,0,11.1,0
2004/2/5,2:30,4.5,0,75,0,=,1,=,1,=,1,19.8,0,11.2,0
2004/2/5,2:45,3.6,0,84,0,=,1,=,1,=,1,19.6,0,11.2,0
2004/2/5,3:00,4,0,85,0,=,1,=,1,=,1,19.4,0,11.1,0
2004/2/5,3:15,4.2,0,84,0,=,1,=,1,=,1,19.2,0,11.1,0
2004/2/5,3:30,4.3,0,89,0,=,1,=,1,=,1,19.1,0,11.1,0
2004/2/5,3:45,4.2,0,91,0,=,1,=,1,=,1,18.9,0,11.1,0
2004/2/5,4:00,4.5,0,90,0,=,1,=,1,=,1,18.7,0,11.1,0
2004/2/5,4:15,5.4,0,65,0,=,1,=,1,=,1,18.5,0,11.2,0
2004/2/5,4:30,5.5,0,54,0,=,1,=,1,=,1,18.4,0,11.2,0
2004/2/5,4:45,5.8,0,51,0,=,1,=,1,=,1,18.2,0,11.2,0
2004/2/5,5:00,5.8,0,48,0,=,1,=,1,=,1,18,0,11.2,0
2004/2/5,5:15,5.9,0,49,0,=,1,=,1,=,1,17.8,0,11.1,0
2004/2/5,5:30,5.8,0,50,0,=,1,=,1,=,1,17.7,0,11.1,0
2004/2/5,5:45,5.7,0,48,0,=,1,=,1,=,1,17.5,0,11.1,0
2004/2/5,6:00,5.7,0,49,0,=,1,=,1,=,1,17.3,0,11.1,0
2004/2/5,6:15,5.7,0,50,0,=,1,=,1,=,1,17.2,0,11.1,0
2004/2/5,6:30,5.7,0,47,0,=,1,=,1,=,1,17,0,11.1,0
2004/2/5,6:45,5.6,0,48,0,=,1,=,1,=,1,16.9,0,11,0
2004/2/5,7:00,5.4,0,47,0,=,1,=,1,=,1,19.1,0,11,0
2004/2/5,7:15,5.3,0,49,0,=,1,=,1,=,1,20.9,0,11.1,0
2004/2/5,7:30,5.2,0,46,0,=,1,=,1,=,1,21.9,0,11,0
2004/2/5,7:45,5.3,0,46,0,=,1,=,1,=,1,22.6,0,11,0
2004/2/5,8:00,5.6,0,41,0,=,1,=,1,=,1,22.7,0,11,0
2004/2/5,8:15,6.1,0,39,0,=,1,=,1,=,1,23,0,10.9,0
2004/2/5,8:30,6.5,0,40,0,=,1,=,1,=,1,23.2,0,10.9,0
2004/2/5,8:45,5.2,0,48,0,=,1,=,1,=,1,22.4,0,10.9,0
2004/2/5,9:00,4.9,0,53,0,=,1,=,1,=,1,21.7,0,10.9,0
2004/2/5,9:15,5.2,0,47,0,=,1,=,1,=,1,20.9,0,11.1,0
2004/2/5,9:30,5.4,0,48,0,=,1,=,1,=,1,20.2,0,11.2,0
2004/2/5,9:45,4.8,0,51,0,=,1,=,1,=,1,19.4,0,11.2,0
2004/2/5,10:00,5.4,0,49,0,=,1,=,1,=,1,19.3,0,11.2,0
2004/2/5,10:15,4.9,0,48,0,=,1,=,1,=,1,19.1,0,11.2,0
2004/2/5,10:30,4.8,0,47,0,=,1,=,1,=,1,18.8,0,11.2,0
2004/2/5,10:45,5,0,44,0,=,1,=,1,=,1,18.5,0,11.2,0
2004/2/5,11:00,7,0,40,0,=,1,=,1,=,1,18.2,0,11.2,0
2004/2/5,11:15,6.5,0,46,0,=,1,=,1,=,1,18,0,11.2,0
2004/2/5,11:30,7,0,42,0,=,1,=,1,=,1,17.9,0,11.2,0
2004/2/5,11:45,9.4,0,42,0,=,1,=,1,=,1,17.8,0,11.1,0
2004/2/5,12:00,5.2,0,56,0,=,1,=,1,=,1,17.5,0,11.1,0
2004/2/5,12:15,5.6,0,55,0,=,1,=,1,=,1,17.3,0,11.1,0
2004/2/5,12:30,6.1,0,39,0,=,1,=,1,=,1,17.1,0,11.1,0
2004/2/5,12:45,6.4,0,42,0,=,1,=,1,=,1,16.9,0,11,0
2004/2/5,13:00,8,0,42,0,=,1,=,1,=,1,16.7,0,11,0
2004/2/5,13:15,8,0,37,0,=,1,=,1,=,1,16.5,0,11,0
2004/2/5,13:30,6.3,0,37,0,=,1,=,1,=,1,16.3,0,11,0
2004/2/5,13:45,6.9,0,32,0,=,1,=,1,=,1,16.1,0,11,0
2004/2/5,14:00,5.9,0,36,0,=,1,=,1,=,1,16.9,0,11,0
2004/2/5,14:15,5.4,0,40,0,=,1,=,1,=,1,19.6,0,11,0
2004/2/5,14:30,5.7,0,38,0,=,1,=,1,=,1,20.7,0,11.1,0
2004/2/5,14:45,4.8,0,41,0,=,1,=,1,=,1,21.2,0,11.1,0
2004/2/5,15:00,4.8,0,44,0,=,1,=,1,=,1,21.9,0,11.1,0
2004/2/5,15:15,4.6,0,48,0,=,1,=,1,=,1,22,0,11.1,0
2004/2/5,15:30,4.5,0,47,0,=,1,=,1,=,1,22,0,11.1,0
2004/2/5,15:45,4.5,0,45,0,=,1,=,1,=,1,22.3,0,11.2,0
2004/2/5,16:00,4.6,0,44,0,=,1,=,1,=,1,22.7,0,11.2,0
2004/2/5,16:15,4.2,0,46,0,=,1,=,1,=,1,22.9,0,11.2,0
2004/2/5,16:30,4.2,0,46,0,=,1,=,1,=,1,23.1,0,11.2,0
2004/2/5,16:45,4.3,0,43,0,=,1,=,1,=,1,23.2,0,11.1,0
2004/2/5,17:00,3.8,0,46,0,=,1,=,1,=,1,23.2,0,11.1,0
2004/2/5,17:15,3.2,0,57,0,=,1,=,1,=,1,23.4,0,11.1,0
2004/2/5,17:30,3.2,0,44,0,=,1,=,1,=,1,23.5,0,11,0
2004/2/5,17:45,3.4,0,46,0,=,1,=,1,=,1,23.4,0,11,0
2004/2/5,18:00,3.5,0,44,0,=,1,=,1,=,1,23.4,0,11,0